This is the latest recevied weather packets stored in our database for station/object EA1CUE-WX. If no packets are shown the sender has not sent any weather packets the latest 10 day(s).
| Time | Temp. | Humidity | Pressure | Rain* | Wind** | Luminosity | Snow |
|---|---|---|---|---|---|---|---|
| 1787824130 | 11.67° C | 1% | 1008.6 hPa | 0.51 mm | - | - | - |
| 1787823830 | 11.67° C | 1% | 1008.6 hPa | 0.51 mm | - | - | - |
| 1787823530 | 11.67° C | 1% | 1008.5 hPa | 0.51 mm | - | - | - |
| 1787823230 | 11.67° C | 1% | 1008.5 hPa | 0.76 mm | - | - | - |
| 1787822930 | 11.11° C | 1% | 1008.6 hPa | 0.76 mm | - | - | - |
| 1787822630 | 11.11° C | 1% | 1008.6 hPa | 1.27 mm | - | - | - |
| 1787822330 | 11.67° C | 1% | 1008.6 hPa | 1.52 mm | - | - | - |
| 1787822030 | 11.67° C | 1% | 1008.7 hPa | 1.78 mm | - | - | - |
| 1787821730 | 11.67° C | 1% | 1008.6 hPa | 1.78 mm | - | - | - |
| 1787821430 | 11.11° C | 1% | 1008.3 hPa | 1.52 mm | - | - | - |
| 1787821130 | 11.11° C | 1% | 1008.3 hPa | 1.52 mm | - | - | - |
| 1787820830 | 11.11° C | 1% | 1008.5 hPa | 1.27 mm | - | - | - |
| 1787820530 | 11.11° C | 1% | 1008.8 hPa | 1.02 mm | - | - | - |
| 1787820230 | 11.11° C | 1% | 1008.9 hPa | 1.02 mm | - | - | - |
| 1787819930 | 11.11° C | 1% | 1009 hPa | 1.02 mm | - | - | - |
| 1787819630 | 11.11° C | 1% | 1009.1 hPa | 0.76 mm | - | - | - |
| 1787819330 | 11.11° C | 1% | 1009.1 hPa | 0.76 mm | - | - | - |
| 1787819030 | 11.11° C | 1% | 1009 hPa | 0.51 mm | - | - | - |
| 1787818730 | 11.11° C | 1% | 1009 hPa | 0.25 mm | - | - | - |
| 1787818430 | 11.11° C | 1% | 1009 hPa | 0 mm | - | - | - |
| 1787818130 | 11.11° C | 1% | 1009 hPa | 0.25 mm | - | - | - |
| 1787817830 | 11.11° C | 1% | 1009 hPa | 0.25 mm | - | - | - |
| 1787817530 | 11.11° C | 1% | 1008.9 hPa | 0.51 mm | - | - | - |
| 1787817230 | 11.11° C | 1% | 1008.8 hPa | 0.51 mm | - | - | - |
| 1787816930 | 11.11° C | 1% | 1008.7 hPa | 0.76 mm | - | - | - |
* Rain latest hour (hover to see other rain measurements)
** Current wind speed in m/s (hover to see current wind gust speed)